This is the latest recevied weather packets stored in our database for station/object K7GFH-13. If no packets are shown the sender has not sent any weather packets the latest 1 day(s).
| Time | Temp. | Humidity | Pressure | Rain* | Wind** | Luminosity | Snow |
|---|---|---|---|---|---|---|---|
| 1778081829 | 12.78° C | 89% | 1022.7 hPa | 0 mm | - | 63 W/m² | - |
| 1778080024 | 12.78° C | 89% | 1022.4 hPa | 0 mm | - | 39 W/m² | - |
| 1778077318 | 13.33° C | 88% | 1021.9 hPa | 0 mm | - | 32 W/m² | - |
| 1778072802 | 12.22° C | 89% | 1021.5 hPa | 0 mm | - | 2 W/m² | - |
| 1778070098 | 12.78° C | 88% | 1021.2 hPa | 0 mm | - | 0 W/m² | - |
| 1778063783 | 13.33° C | 86% | 1019.8 hPa | 0 mm | - | 0 W/m² | - |
| 1778062881 | 13.33° C | 86% | 1019.7 hPa | 0 mm | - | 0 W/m² | - |
| 1778061077 | 13.89° C | 88% | 1019.7 hPa | 0 mm | - | 0 W/m² | - |
| 1778060176 | 13.89° C | 89% | 1019.7 hPa | 0 mm | - | 0 W/m² | - |
| 1778059273 | 13.89° C | 90% | 1019.6 hPa | 0 mm | - | 0 W/m² | - |
| 1778058373 | 14.44° C | 89% | 1019.5 hPa | 0 mm | - | 0 W/m² | - |
| 1778057468 | 14.44° C | 88% | 1019.6 hPa | 0 mm | - | 0 W/m² | - |
| 1778056564 | 14.44° C | 88% | 1019.6 hPa | 0 mm | - | 0 W/m² | - |
| 1778055659 | 13.89° C | 89% | 1019.4 hPa | 0 mm | - | 0 W/m² | - |
| 1778054758 | 13.89° C | 89% | 1019.3 hPa | 0 mm | - | 0 W/m² | - |
| 1778052953 | 14.44° C | 87% | 1019.2 hPa | 0 mm | - | 0 W/m² | - |
| 1778051148 | 14.44° C | 88% | 1019 hPa | 0 mm | - | 0 W/m² | - |
| 1778050245 | 14.44° C | 88% | 1018.9 hPa | 0 mm | - | 0 W/m² | - |
| 1778047537 | 14.44° C | 86% | 1018.8 hPa | 0 mm | - | 0 W/m² | - |
| 1778046633 | 14.44° C | 86% | 1018.9 hPa | 0 mm | - | 0 W/m² | - |
| 1778045730 | 14.44° C | 87% | 1018.8 hPa | 0 mm | - | 0 W/m² | - |
| 1778043023 | 15° C | 85% | 1018.6 hPa | 0 mm | - | 0 W/m² | - |
| 1778042120 | 15° C | 85% | 1018.4 hPa | 0 mm | - | 0 W/m² | - |
| 1778041221 | 14.44° C | 86% | 1018.2 hPa | 0 mm | - | 0 W/m² | - |
| 1778040319 | 15° C | 84% | 1018.2 hPa | 0 mm | - | 0 W/m² | - |
* Rain latest hour (hover to see other rain measurements)
** Current wind speed in m/s (hover to see current wind gust speed)